Regional Weather Roundup
Issued by NWS Charleston, SC

Current Version | Previous Version | Text Only | Print | Product List | Glossary Off
Versions: 1 2 3 4 5 6 7 8 9 10 11 12 13 14 15 16 17 18 19 20 21 22 23 24 25 26 27 28 29 30 31 32 33 34 35 36 37 38 39 40 41 42 43 44 45 46 47 48 49 50

159
ASUS42 KCHS 232027
RWRCHS

REGIONAL WEATHER ROUNDUP
NATIONAL WEATHER SERVICE CHARLESTON SC
400 PM EDT MON OCT 23 2017

NOTE: "FAIR" INDICATES FEW OR NO CLOUDS BELOW 12,000 FEET WITH NO
SIGNIFICANT WEATHER AND/OR OBSTRUCTIONS TO VISIBILITY.

NOT ALL STATIONS ARE QUALITY CONTROLLED. USE DATA WITH CAUTION...
ESPECIALLY DEWPOINT OBSERVATIONS.

SCZ027-030-031-034>040-042>050-232100-
...SOUTHEAST SOUTH CAROLINA...

CITY           SKY/WX    TMP DP  RH WIND       PRES   REMARKS
N CHARLESTON   CLOUDY    76  74  93 S14       29.90F
WATERFRONT PRK NOT AVBL
JOHNS ISLAND   CLOUDY    77  75  94 S13G20    29.90F FOG
PINOPOLIS      NOT AVBL
MONCKS CORNER  HVY RAIN  73  72  94 S6        29.90F
SUMMERVILLE    MOCLDY    73  70  88 S7G16     29.90F
BEAUFORT MCAS  CLOUDY    79  75  87 S9        29.88F
BEAUFORT ARPT  MOCLDY    79  73  83 S9G21     29.88F HAZE
HILTON HEAD IS MOSUNNY   79  75  89 S13       29.89F
WALTERBORO     CLOUDY    75  72  88 S12G20    29.88F
ALLENDALE        N/A     75  73  94 S10         N/A

...SOUTHERN MIDLANDS AND PEE DEE...

CITY           SKY/WX    TMP DP  RH WIND       PRES   REMARKS
GEORGETOWN     CLOUDY    77  75  94 S13G22    29.94F
KINGSTREE      HVY RAIN  72  72 100 SE10      29.91F
ORANGEBURG     HVY RAIN  74  71  91 SE16G23   29.84R FOG
BARNWELL       DRIZZLE   75  75 100 S6        29.83F
AIKEN          RAIN      70  70 100 S17G23    29.85F
MANNING        HVY RAIN  72  72 100 MISG      29.90F VSB 3/4
COLUMBIA       LGT RAIN  78  73  84 S20G31    29.80R
SUMTER         LGT RAIN  73  68  83 SW13      29.85R
FLORENCE       LGT RAIN  71  71 100 SE10      29.92F
MYRTLE BEACH   CLOUDY    77  72  84 S15       29.96F
N MYRTLE BEACH CLOUDY    77  70  79 SE9       29.95F

$$

GAZ063-065-086>088-099>101-113>116-118-119-134>141-150-232100-
...SOUTHEAST GEORGIA...

CITY           SKY/WX    TMP DP  RH WIND       PRES   REMARKS
SAVANNAH ARPT  LGT RAIN  82  74  76 S20G29    29.86F
HUNTER AAF     MOSUNNY   81  73  78 S15G29    29.85F
FORT STEWART   LGT RAIN  79  73  83 SE8       29.83F
STATESBORO     DRIZZLE   77  76  98 S10       29.83F
SYLVANIA       RAIN      76  76 100 CALM      29.84F
CLAXTON        RAIN      79  76  90 SE7       29.83F

...CSRA...CENTRAL AND FAR SOUTHEAST GEORGIA...

CITY           SKY/WX    TMP DP  RH WIND       PRES   REMARKS
THOMSON        LGT RAIN  68  66  92 NW6       29.89S
AUGUSTA-BUSH   LGT RAIN  76  72  87 S14G24    29.81F FOG
AUGUSTA-DANIEL LGT RAIN  74  70  87 S14       29.82F
SWAINSBORO     CLOUDY    75  75 100 SW5       29.84F
VIDALIA        LGT RAIN  77  73  88 SW10G16   29.84S
EASTMAN        FAIR      75  63  65 W10       29.89S
HAZLEHURST     HVY RAIN  73  70  91 SW6G22    29.85R
ALMA           CLOUDY    79  75  87 S10       29.84F
WAYCROSS       RAIN      77  74  90 SW15      29.87R
JESUP          LGT RAIN  79  73  83 S5        29.86
BAXLEY         CLOUDY    77  77 100 S10       29.85F
BRUNSWICK      CLOUDY    79  72  78 SE17G23   29.88F
SAINT SIMONS   CLOUDY    79  75  87 S12G20    29.89S

$$

SCZ027-028-034-036>038-045-046-048>050-GAZ119-141-232100-
...LAKE AND SUPPLEMENTAL COASTAL OBSERVATIONS...

STATION/POSITION TIME  TEMP    WIND        PRES    WAVE   SWELL
                       AIR SEA DIR/SP/G            HT/PER HT/PER/DIR
                 (UTC) (F)     (DEG/KT/KT) (MB)    (FT/S) (FT/S/D)
WINYAH BAY       1945   77     160/ 12     1014.0F
LAKE MURRAY      1950   76     170/ 24/ 38 1008.1F
ACE BASIN NERRS  1945   75     140/  6     1013.0F
FORT PULASKI     2000   80 74  170/ 12/ 19 1012.0
SAPELO ISLAND    NOT AVBL

$$

ANZ835-935-AMZ111-154-330-350-352-354-370-450-454-472-232100-
...C-MAN AND BUOY OBSERVATIONS...

STATION/POSITION TIME  TEMP    WIND        PRES    WAVE   SWELL
                       AIR SEA DIR/SP/G            HT/PER HT/PER/DIR
                 (UTC) (F)     (DEG/KT/KT) (MB)    (FT/S) (FT/S/D)
BUOY 41004       2010   80 79  160/ 23/ 29 1013.5
BUOY 41008       1950   79 77  160/ 19/ 21 1012.0S   6/ 8   2/100/ 8
FOLLY BEACH CMAN 2000   77     170/ 20/ 22 1013.5F
CAPERS NEARSHORE 2008   75 73  170/ 17/ 25 1012.4F
FRIPP NEARSHORE  2008   77     170/ 16/ 19   N/A


STATION/POSITION TIME  TEMP    WIND        PRES    WAVE   SWELL
                       AIR SEA DIR/SP/G            HT/PER HT/PER/DIR
                 (UTC) (F)     (DEG/KT/KT) (MB)    (FT/S) (FT/S/D)
5E ST. MARYS GA  2000      77                N/A     5/ 7
FRYING PAN BUOY  2010   79 78  170/ 19/ 25 1015.2
BUOY 41025       1950   78 80  170/ 19/ 23 1017.9F   6/ 5   2/110/ 9
CAPE LOOKOUT NC  2000   76     150/ 16/ 17 1016.8F
BUOY 41002       1950   78 80  130/ 17/ 21 1018.3F   5/ 9   2/ 70/ 9
BUOY 41010       NOT AVBL
ST AUGUSTINE FL  2000   79 79  160/ 18/ 20 1013.2F


$$




USA.gov is the U.S. government's official web portal to all federal, state and local government web resources and services.